| time (UTC) | temp F | wind direction | speed MPH | gust MPH | rain 1hr in | rain 24hr in | rain mn in | humidity % | barometer mb |
| 20260506044516 | 44 | 303 | 5.0 | 8.0 | 0.00 | 0.00 | 0.00 | 63 | 1008.6 |
| 20260506044016 | 44 | 280 | 3.0 | 6.0 | 0.00 | 0.00 | 0.00 | 66 | 1008.6 |
| 20260506043518 | 44 | 289 | 2.0 | 4.0 | 0.00 | 0.00 | 0.00 | 66 | 1008.5 |
| 20260506043018 | 44 | 287 | 2.0 | 5.0 | 0.00 | 0.00 | 0.00 | 67 | 1008.3 |
| 20260506042518 | 44 | 311 | 2.0 | 5.0 | 0.00 | 0.00 | 0.00 | 67 | 1007.9 |
| 20260506042017 | 44 | 313 | 0.0 | 4.0 | 0.00 | 0.00 | 0.00 | 70 | 1008.1 |
| 20260506041517 | 44 | 0.0 | 0.0 | 0.00 | 0.00 | 0.00 | 71 | 1008.1 | |
| 20260506041018 | 44 | 0.0 | 0.0 | 0.00 | 0.00 | 0.00 | 71 | 1008.0 | |
| 20260506040517 | 44 | 0.0 | 0.0 | 0.00 | 0.00 | 0.00 | 71 | 1007.9 | |
| 20260506040016 | 44 | 0.0 | 0.0 | 0.00 | 0.00 | 0.00 | 71 | 1008.0 | |
| 20260506035535 | 44 | 0.0 | 0.0 | 0.00 | 0.00 | 0.00 | 72 | 1008.0 | |
| 20260506035015 | 44 | 0.0 | 0.0 | 0.00 | 0.00 | 0.00 | 73 | 1008.0 | |
| 20260506034515 | 44 | 0.0 | 0.0 | 0.00 | 0.01 | 0.00 | 73 | 1008.0 | |
| 20260506034017 | 44 | 0.0 | 0.0 | 0.00 | 0.01 | 0.00 | 73 | 1008.0 | |
| 20260506033517 | 43 | 0.0 | 0.0 | 0.00 | 0.01 | 0.00 | 72 | 1007.9 | |
| 20260506033017 | 43 | 0.0 | 0.0 | 0.00 | 0.01 | 0.00 | 74 | 1007.9 | |
| 20260506032537 | 43 | 0.0 | 0.0 | 0.00 | 0.01 | 0.00 | 74 | 1007.9 | |
| 20260506032018 | 43 | 0.0 | 0.0 | 0.00 | 0.01 | 0.00 | 74 | 1007.8 | |
| 20260506031517 | 43 | 0.0 | 0.0 | 0.00 | 0.01 | 0.00 | 73 | 1007.7 | |
| 20260506031017 | 43 | 0.0 | 0.0 | 0.00 | 0.01 | 0.00 | 72 | 1008.0 | |
| 20260506030517 | 44 | 0.0 | 0.0 | 0.00 | 0.01 | 0.00 | 71 | 1008.1 | |
| 20260506030018 | 44 | 0.0 | 0.0 | 0.00 | 0.01 | 0.00 | 71 | 1008.0 | |
| 20260506025517 | 44 | 0.0 | 0.0 | 0.00 | 0.01 | 0.00 | 70 | 1008.0 | |
| 20260506025018 | 44 | 0.0 | 0.0 | 0.00 | 0.01 | 0.00 | 70 | 1007.9 | |
| 20260506024517 | 44 | 0.0 | 0.0 | 0.00 | 0.01 | 0.00 | 70 | 1007.9 | |
| 20260506024017 | 44 | 0.0 | 0.0 | 0.00 | 0.01 | 0.00 | 69 | 1007.9 | |
| 20260506023518 | 44 | 0.0 | 0.0 | 0.00 | 0.01 | 0.00 | 69 | 1007.7 | |
| 20260506023017 | 44 | 0.0 | 0.0 | 0.00 | 0.01 | 0.00 | 69 | 1007.6 | |
| 20260506022517 | 44 | 0.0 | 0.0 | 0.00 | 0.01 | 0.00 | 67 | 1007.5 | |
| 20260506022017 | 44 | 0.0 | 0.0 | 0.00 | 0.01 | 0.00 | 65 | 1007.6 | |
| 20260506021537 | 45 | 0.0 | 0.0 | 0.00 | 0.01 | 0.00 | 65 | 1007.6 | |
| 20260506021017 | 45 | 0.0 | 0.0 | 0.00 | 0.01 | 0.00 | 63 | 1007.4 | |
| 20260506020517 | 45 | 0.0 | 0.0 | 0.00 | 0.01 | 0.00 | 63 | 1007.3 | |
| 20260506020017 | 45 | 0.0 | 0.0 | 0.00 | 0.01 | 0.00 | 63 | 1007.3 | |
| 20260506015517 | 45 | 0.0 | 0.0 | 0.00 | 0.01 | 0.00 | 62 | 1007.1 | |
| 20260506015017 | 45 | 0.0 | 0.0 | 0.00 | 0.01 | 0.00 | 62 | 1007.1 | |
| 20260506014517 | 45 | 0.0 | 0.0 | 0.00 | 0.01 | 0.00 | 62 | 1007.0 | |
| 20260506014017 | 46 | 0.0 | 0.0 | 0.00 | 0.01 | 0.00 | 62 | 1006.9 | |
| 20260506013517 | 46 | 0.0 | 0.0 | 0.00 | 0.01 | 0.00 | 62 | 1006.8 | |
| 20260506013037 | 46 | 0.0 | 0.0 | 0.00 | 0.01 | 0.00 | 61 | 1006.6 | |
| 20260506012518 | 46 | 0.0 | 0.0 | 0.00 | 0.01 | 0.00 | 60 | 1006.5 | |
| 20260506012018 | 47 | 0.0 | 0.0 | 0.00 | 0.01 | 0.00 | 57 | 1006.5 | |
| 20260506011517 | 47 | 0.0 | 0.0 | 0.00 | 0.01 | 0.00 | 56 | 1006.5 | |
| 20260506011018 | 47 | 0.0 | 0.0 | 0.00 | 0.01 | 0.00 | 55 | 1006.5 | |
| 20260506010516 | 47 | 0.0 | 0.0 | 0.00 | 0.01 | 0.00 | 56 | 1006.6 | |
| 20260506010016 | 47 | 0.0 | 0.0 | 0.00 | 0.01 | 0.00 | 57 | 1006.6 | |
| 20260506005517 | 48 | 0.0 | 0.0 | 0.00 | 0.01 | 0.00 | 55 | 1006.7 | |
| 20260506005016 | 48 | 0.0 | 0.0 | 0.00 | 0.01 | 0.00 | 52 | 1006.5 | |
| 20260506004517 | 48 | 0.0 | 0.0 | 0.00 | 0.01 | 0.00 | 52 | 1006.6 | |
| 20260506004017 | 49 | 0.0 | 0.0 | 0.00 | 0.01 | 0.00 | 53 | 1006.7 | |
| 20260506003537 | 49 | 0.0 | 2.0 | 0.00 | 0.01 | 0.00 | 51 | 1006.6 | |
| 20260506003016 | 49 | 309 | 0.0 | 2.0 | 0.00 | 0.01 | 0.00 | 50 | 1006.6 |
| 20260506002516 | 49 | 309 | 0.0 | 2.0 | 0.00 | 0.01 | 0.00 | 49 | 1006.6 |
| 20260506002038 | 49 | 308 | 1.0 | 2.0 | 0.00 | 0.01 | 0.00 | 46 | 1006.6 |
| 20260506001537 | 49 | 304 | 1.0 | 2.0 | 0.00 | 0.01 | 0.00 | 46 | 1006.6 |
| 20260506001016 | 49 | 304 | 1.0 | 2.0 | 0.00 | 0.01 | 0.00 | 45 | 1006.6 |
| 20260506000517 | 49 | 299 | 1.0 | 2.0 | 0.00 | 0.01 | 0.00 | 45 | 1006.7 |
| 20260506000017 | 49 | 295 | 1.0 | 4.0 | 0.00 | 0.01 | 0.00 | 46 | 1006.7 |
| 20260505235536 | 49 | 290 | 2.0 | 5.0 | 0.00 | 0.01 | 0.00 | 44 | 1006.8 |
| 20260505235038 | 49 | 302 | 3.0 | 5.0 | 0.00 | 0.01 | 0.00 | 44 | 1006.8 |
| 20260505234516 | 49 | 304 | 2.0 | 6.0 | 0.00 | 0.01 | 0.00 | 44 | 1006.8 |
| 20260505234016 | 49 | 281 | 2.0 | 6.0 | 0.00 | 0.01 | 0.00 | 44 | 1006.7 |
| 20260505233517 | 49 | 275 | 2.0 | 6.0 | 0.00 | 0.01 | 0.00 | 45 | 1006.7 |
| 20260505233018 | 49 | 288 | 2.0 | 6.0 | 0.00 | 0.01 | 0.00 | 45 | 1006.7 |
| 20260505232516 | 49 | 259 | 3.0 | 6.0 | 0.00 | 0.01 | 0.00 | 47 | 1006.7 |
| 20260505232017 | 49 | 282 | 2.0 | 7.0 | 0.00 | 0.01 | 0.00 | 44 | 1006.8 |
| 20260505231516 | 49 | 266 | 4.0 | 8.0 | 0.00 | 0.01 | 0.00 | 44 | 1006.9 |
| 20260505231037 | 50 | 305 | 3.0 | 8.0 | 0.00 | 0.01 | 0.00 | 44 | 1006.8 |
| 20260505230517 | 50 | 314 | 4.0 | 8.0 | 0.00 | 0.01 | 0.00 | 43 | 1006.9 |
| 20260505230037 | 50 | 292 | 4.0 | 8.0 | 0.00 | 0.01 | 0.00 | 42 | 1006.9 |
| 20260505225536 | 50 | 290 | 3.0 | 9.0 | 0.00 | 0.01 | 0.00 | 43 | 1006.9 |
| 20260505225017 | 50 | 312 | 5.0 | 9.0 | 0.00 | 0.01 | 0.00 | 43 | 1006.9 |
| 20260505224517 | 50 | 309 | 5.0 | 9.0 | 0.00 | 0.01 | 0.00 | 44 | 1006.9 |
| 20260505224017 | 50 | 314 | 5.0 | 10.0 | 0.00 | 0.01 | 0.00 | 43 | 1006.9 |
| 20260505223518 | 50 | 321 | 5.0 | 10.0 | 0.00 | 0.01 | 0.00 | 42 | 1007.0 |
| 20260505223016 | 50 | 301 | 4.0 | 8.0 | 0.00 | 0.01 | 0.00 | 44 | 1006.9 |
| 20260505222517 | 50 | 295 | 3.0 | 10.0 | 0.00 | 0.01 | 0.00 | 44 | 1006.8 |
| 20260505222017 | 50 | 282 | 5.0 | 10.0 | 0.00 | 0.01 | 0.00 | 44 | 1006.7 |
| 20260505221516 | 50 | 286 | 5.0 | 9.0 | 0.00 | 0.01 | 0.00 | 43 | 1006.8 |
| 20260505221057 | 50 | 284 | 6.0 | 8.0 | 0.00 | 0.01 | 0.00 | 43 | 1006.8 |
| 20260505220516 | 50 | 282 | 5.0 | 11.0 | 0.00 | 0.01 | 0.00 | 43 | 1006.8 |
| 20260505220016 | 50 | 277 | 7.0 | 11.0 | 0.00 | 0.01 | 0.00 | 43 | 1006.8 |
| 20260505215516 | 50 | 288 | 6.0 | 11.0 | 0.00 | 0.01 | 0.00 | 44 | 1006.7 |
| 20260505215036 | 50 | 286 | 6.0 | 12.0 | 0.00 | 0.01 | 0.00 | 43 | 1006.8 |
| 20260505214516 | 50 | 277 | 7.0 | 12.0 | 0.00 | 0.01 | 0.00 | 42 | 1006.8 |
| 20260505214016 | 50 | 267 | 6.0 | 13.0 | 0.00 | 0.01 | 0.00 | 44 | 1006.8 |
| 20260505213516 | 50 | 264 | 7.0 | 13.0 | 0.00 | 0.01 | 0.00 | 44 | 1006.7 |
| 20260505213016 | 50 | 290 | 7.0 | 11.0 | 0.00 | 0.01 | 0.00 | 43 | 1006.7 |
| 20260505212516 | 50 | 283 | 4.0 | 13.0 | 0.00 | 0.01 | 0.00 | 43 | 1006.9 |
| 20260505212016 | 50 | 311 | 6.0 | 13.0 | 0.00 | 0.01 | 0.00 | 43 | 1006.9 |
| 20260505211517 | 50 | 280 | 5.0 | 11.0 | 0.00 | 0.01 | 0.00 | 45 | 1006.9 |
| 20260505211016 | 50 | 280 | 7.0 | 12.0 | 0.00 | 0.01 | 0.00 | 43 | 1006.9 |
| 20260505210517 | 50 | 281 | 9.0 | 12.0 | 0.00 | 0.01 | 0.00 | 42 | 1006.9 |
| 20260505210016 | 50 | 279 | 7.0 | 12.0 | 0.00 | 0.01 | 0.00 | 43 | 1006.8 |
| 20260505205516 | 50 | 308 | 4.0 | 11.0 | 0.00 | 0.01 | 0.00 | 42 | 1006.8 |
| 20260505205016 | 50 | 268 | 8.0 | 12.0 | 0.00 | 0.01 | 0.00 | 43 | 1006.8 |
| 20260505204516 | 50 | 291 | 6.0 | 12.0 | 0.00 | 0.01 | 0.00 | 42 | 1006.8 |
| 20260505204016 | 50 | 280 | 7.0 | 14.0 | 0.00 | 0.01 | 0.00 | 42 | 1006.9 |
| 20260505203516 | 50 | 271 | 7.0 | 14.0 | 0.00 | 0.01 | 0.00 | 42 | 1007.0 |
| 20260505203017 | 50 | 303 | 9.0 | 14.0 | 0.00 | 0.01 | 0.00 | 41 | 1007.0 |
| 20260505202517 | 51 | 286 | 8.0 | 14.0 | 0.00 | 0.01 | 0.00 | 41 | 1007.2 |
| 20260505202016 | 51 | 303 | 8.0 | 13.0 | 0.00 | 0.01 | 0.00 | 41 | 1007.2 |
| 20260505201516 | 51 | 285 | 7.0 | 12.0 | 0.00 | 0.01 | 0.00 | 42 | 1007.2 |
| 20260505201016 | 51 | 283 | 6.0 | 13.0 | 0.00 | 0.01 | 0.00 | 42 | 1007.1 |
| 20260505200537 | 51 | 282 | 8.0 | 15.0 | 0.00 | 0.01 | 0.00 | 41 | 1007.1 |
| 20260505200016 | 51 | 300 | 9.0 | 15.0 | 0.00 | 0.01 | 0.00 | 41 | 1007.1 |
| 20260505195516 | 51 | 307 | 7.0 | 14.0 | 0.00 | 0.01 | 0.00 | 42 | 1007.1 |
| 20260505195016 | 51 | 275 | 8.0 | 14.0 | 0.00 | 0.01 | 0.00 | 42 | 1007.1 |
| 20260505194517 | 50 | 276 | 7.0 | 12.0 | 0.00 | 0.01 | 0.00 | 41 | 1007.2 |
| 20260505194016 | 51 | 296 | 7.0 | 13.0 | 0.00 | 0.01 | 0.00 | 41 | 1007.2 |
| 20260505193516 | 50 | 310 | 7.0 | 14.0 | 0.00 | 0.01 | 0.00 | 42 | 1007.2 |
| 20260505193018 | 50 | 289 | 8.0 | 16.0 | 0.00 | 0.01 | 0.00 | 41 | 1007.3 |
| 20260505192516 | 50 | 309 | 10.0 | 16.0 | 0.00 | 0.01 | 0.00 | 41 | 1007.3 |
| 20260505192016 | 50 | 304 | 9.0 | 16.0 | 0.00 | 0.01 | 0.00 | 42 | 1007.3 |
| 20260505191517 | 50 | 291 | 10.0 | 16.0 | 0.00 | 0.01 | 0.00 | 40 | 1007.3 |
| 20260505191037 | 51 | 278 | 8.0 | 14.0 | 0.00 | 0.01 | 0.00 | 41 | 1007.2 |
| 20260505190517 | 51 | 294 | 8.0 | 15.0 | 0.00 | 0.01 | 0.00 | 41 | 1007.1 |
| 20260505190036 | 51 | 300 | 10.0 | 15.0 | 0.00 | 0.01 | 0.00 | 39 | 1007.0 |
| 20260505185516 | 51 | 298 | 9.0 | 15.0 | 0.00 | 0.01 | 0.00 | 39 | 1006.9 |
| 20260505185017 | 51 | 296 | 9.0 | 15.0 | 0.00 | 0.01 | 0.00 | 37 | 1006.8 |
| 20260505184538 | 51 | 282 | 7.0 | 13.0 | 0.00 | 0.01 | 0.00 | 39 | 1006.8 |
| 20260505184017 | 51 | 295 | 7.0 | 13.0 | 0.00 | 0.01 | 0.00 | 39 | 1006.8 |
| 20260505183516 | 51 | 278 | 9.0 | 14.0 | 0.00 | 0.01 | 0.00 | 38 | 1006.7 |
| 20260505183016 | 51 | 311 | 8.0 | 14.0 | 0.00 | 0.01 | 0.00 | 37 | 1006.7 |
| 20260505182516 | 51 | 284 | 8.0 | 19.0 | 0.00 | 0.01 | 0.00 | 38 | 1006.8 |
| 20260505182016 | 51 | 275 | 9.0 | 19.0 | 0.00 | 0.01 | 0.00 | 37 | 1006.8 |
| 20260505181516 | 51 | 277 | 9.0 | 16.0 | 0.00 | 0.01 | 0.00 | 37 | 1006.8 |
| 20260505181016 | 51 | 286 | 9.0 | 18.0 | 0.00 | 0.01 | 0.00 | 39 | 1006.6 |
| 20260505180556 | 51 | 311 | 11.0 | 18.0 | 0.00 | 0.01 | 0.00 | 36 | 1006.7 |
| 20260505180016 | 51 | 315 | 8.0 | 14.0 | 0.00 | 0.01 | 0.00 | 38 | 1006.5 |
| 20260505175516 | 51 | 296 | 8.0 | 17.0 | 0.00 | 0.01 | 0.00 | 36 | 1006.5 |
| 20260505175016 | 51 | 277 | 11.0 | 21.0 | 0.00 | 0.01 | 0.00 | 36 | 1006.6 |
| 20260505174516 | 51 | 288 | 12.0 | 21.0 | 0.00 | 0.01 | 0.00 | 36 | 1006.7 |
| 20260505174016 | 51 | 299 | 9.0 | 14.0 | 0.00 | 0.01 | 0.00 | 37 | 1006.5 |
| 20260505173516 | 51 | 305 | 9.0 | 16.0 | 0.00 | 0.01 | 0.00 | 38 | 1006.4 |
| 20260505173016 | 51 | 320 | 10.0 | 16.0 | 0.00 | 0.01 | 0.00 | 39 | 1006.5 |
| 20260505172517 | 51 | 323 | 10.0 | 15.0 | 0.00 | 0.01 | 0.00 | 36 | 1006.2 |
| 20260505172036 | 51 | 329 | 10.0 | 17.0 | 0.00 | 0.01 | 0.00 | 37 | 1006.2 |
| 20260505171516 | 51 | 327 | 10.0 | 17.0 | 0.00 | 0.01 | 0.00 | 39 | 1006.2 |
| 20260505171056 | 51 | 302 | 10.0 | 16.0 | 0.00 | 0.01 | 0.00 | 36 | 1006.3 |
| 20260505170516 | 51 | 300 | 8.0 | 17.0 | 0.00 | 0.01 | 0.00 | 41 | 1005.9 |
| 20260505170016 | 51 | 314 | 10.0 | 17.0 | 0.00 | 0.01 | 0.00 | 38 | 1006.0 |
| 20260505165517 | 51 | 329 | 9.0 | 16.0 | 0.00 | 0.01 | 0.00 | 40 | 1005.9 |
| 20260505165016 | 51 | 299 | 9.0 | 15.0 | 0.00 | 0.01 | 0.00 | 39 | 1005.9 |
| 20260505164537 | 51 | 321 | 7.0 | 14.0 | 0.00 | 0.01 | 0.00 | 39 | 1005.9 |
| 20260505164016 | 51 | 301 | 9.0 | 17.0 | 0.00 | 0.01 | 0.00 | 39 | 1005.7 |
| 20260505163516 | 51 | 322 | 10.0 | 17.0 | 0.00 | 0.01 | 0.00 | 40 | 1005.7 |
| 20260505163015 | 50 | 290 | 8.0 | 13.0 | 0.00 | 0.01 | 0.00 | 42 | 1005.7 |
| 20260505162538 | 50 | 256 | 7.0 | 16.0 | 0.00 | 0.01 | 0.00 | 42 | 1005.9 |
| 20260505162016 | 50 | 292 | 8.0 | 16.0 | 0.00 | 0.01 | 0.00 | 41 | 1006.0 |
| 20260505161537 | 50 | 330 | 10.0 | 15.0 | 0.00 | 0.01 | 0.00 | 42 | 1006.2 |
| 20260505161015 | 50 | 340 | 8.0 | 15.0 | 0.00 | 0.01 | 0.00 | 43 | 1006.0 |
| 20260505160516 | 49 | 308 | 9.0 | 15.0 | 0.00 | 0.01 | 0.00 | 41 | 1006.1 |
| 20260505153016 | 48 | 295 | 8.0 | 13.0 | 0.00 | 0.01 | 0.00 | 44 | 1006.0 |
| 20260505152516 | 48 | 314 | 7.0 | 14.0 | 0.00 | 0.01 | 0.00 | 44 | 1005.9 |
| 20260505152017 | 48 | 310 | 9.0 | 15.0 | 0.00 | 0.01 | 0.00 | 44 | 1006.1 |
| 20260505151515 | 48 | 303 | 9.0 | 15.0 | 0.00 | 0.01 | 0.00 | 44 | 1006.1 |
| 20260505151016 | 48 | 298 | 8.0 | 14.0 | 0.00 | 0.01 | 0.00 | 44 | 1006.4 |
| 20260505150517 | 48 | 293 | 4.0 | 11.0 | 0.00 | 0.01 | 0.00 | 48 | 1006.4 |
| 20260505140515 | 46 | 302 | 9.0 | 17.0 | 0.00 | 0.01 | 0.00 | 59 | 1005.5 |
| 20260505125015 | 46 | 297 | 8.0 | 13.0 | 0.00 | 0.01 | 0.00 | 75 | 1005.5 |
| 20260505124515 | 46 | 295 | 6.0 | 11.0 | 0.00 | 0.01 | 0.00 | 75 | 1005.5 |
| 20260505124035 | 46 | 291 | 6.0 | 12.0 | 0.00 | 0.01 | 0.00 | 76 | 1005.1 |
| 20260505123516 | 46 | 304 | 7.0 | 12.0 | 0.00 | 0.01 | 0.00 | 76 | 1004.8 |
| 20260505123016 | 46 | 308 | 4.0 | 11.0 | 0.00 | 0.01 | 0.00 | 77 | 1004.3 |
| 20260505122515 | 46 | 299 | 7.0 | 11.0 | 0.00 | 0.01 | 0.00 | 77 | 1004.3 |
| 20260505122015 | 46 | 284 | 5.0 | 12.0 | 0.00 | 0.01 | 0.00 | 78 | 1004.6 |
| 20260505121515 | 46 | 288 | 7.0 | 12.0 | 0.00 | 0.01 | 0.00 | 78 | 1004.5 |
| 20260505121015 | 46 | 276 | 8.0 | 15.0 | 0.00 | 0.01 | 0.00 | 78 | 1004.4 |
| 20260505120515 | 46 | 282 | 9.0 | 15.0 | 0.00 | 0.01 | 0.00 | 77 | 1004.3 |
| 20260505120015 | 47 | 288 | 10.0 | 15.0 | 0.00 | 0.01 | 0.00 | 76 | 1004.1 |
| 20260505115516 | 47 | 287 | 8.0 | 14.0 | 0.00 | 0.01 | 0.00 | 74 | 1004.1 |
| 20260505115015 | 47 | 298 | 5.0 | 13.0 | 0.00 | 0.01 | 0.00 | 74 | 1003.7 |
| 20260505114516 | 47 | 297 | 7.0 | 13.0 | 0.00 | 0.01 | 0.00 | 73 | 1003.9 |
| 20260505114016 | 47 | 295 | 5.0 | 10.0 | 0.00 | 0.01 | 0.00 | 73 | 1003.8 |
| 20260505113515 | 47 | 289 | 5.0 | 9.0 | 0.00 | 0.01 | 0.00 | 73 | 1003.5 |
| 20260505113015 | 47 | 307 | 5.0 | 9.0 | 0.00 | 0.01 | 0.00 | 73 | 1003.6 |
| 20260505112515 | 47 | 299 | 3.0 | 6.0 | 0.00 | 0.01 | 0.00 | 73 | 1003.2 |
| 20260505112016 | 47 | 291 | 3.0 | 9.0 | 0.00 | 0.01 | 0.00 | 74 | 1003.3 |
| 20260505111516 | 47 | 271 | 5.0 | 9.0 | 0.00 | 0.01 | 0.00 | 73 | 1003.3 |
| 20260505111015 | 47 | 282 | 4.0 | 8.0 | 0.00 | 0.01 | 0.00 | 73 | 1003.2 |
| 20260505110515 | 48 | 283 | 4.0 | 8.0 | 0.00 | 0.01 | 0.00 | 72 | 1003.0 |
| 20260505102037 | 49 | 251 | 8.0 | 11.0 | 0.00 | 0.01 | 0.00 | 66 | 1002.4 |
| 20260505101517 | 49 | 260 | 6.0 | 9.0 | 0.00 | 0.01 | 0.00 | 66 | 1002.0 |
| 20260505101018 | 49 | 263 | 6.0 | 11.0 | 0.00 | 0.01 | 0.00 | 65 | 1002.1 |
| 20260505100557 | 50 | 264 | 7.0 | 11.0 | 0.00 | 0.01 | 0.00 | 64 | 1002.1 |
| 20260505100017 | 50 | 271 | 6.0 | 11.0 | 0.00 | 0.01 | 0.00 | 64 | 1001.9 |
| 20260505095517 | 50 | 272 | 6.0 | 11.0 | 0.00 | 0.01 | 0.00 | 63 | 1002.1 |
| 20260505095017 | 50 | 261 | 7.0 | 11.0 | 0.00 | 0.01 | 0.00 | 64 | 1002.3 |
| 20260505094518 | 50 | 261 | 7.0 | 11.0 | 0.00 | 0.01 | 0.00 | 64 | 1002.2 |
| 20260505094017 | 50 | 259 | 5.0 | 10.0 | 0.00 | 0.01 | 0.00 | 65 | 1001.9 |
| 20260505093517 | 50 | 261 | 6.0 | 10.0 | 0.00 | 0.01 | 0.00 | 64 | 1001.8 |
| 20260505093018 | 51 | 260 | 5.0 | 8.0 | 0.00 | 0.01 | 0.00 | 64 | 1001.6 |
| 20260505092517 | 51 | 267 | 5.0 | 8.0 | 0.00 | 0.01 | 0.00 | 64 | 1001.6 |
| 20260505092017 | 51 | 284 | 3.0 | 8.0 | 0.00 | 0.01 | 0.00 | 62 | 1001.3 |
| 20260505091537 | 51 | 302 | 2.0 | 8.0 | 0.00 | 0.01 | 0.00 | 59 | 1000.6 |
| 20260505091017 | 51 | 261 | 4.0 | 11.0 | 0.00 | 0.01 | 0.00 | 59 | 1001.7 |
| 20260505090518 | 51 | 281 | 6.0 | 11.0 | 0.00 | 0.01 | 0.00 | 58 | 1001.7 |
| 20260505090017 | 52 | 285 | 4.0 | 11.0 | 0.00 | 0.01 | 0.00 | 58 | 1001.3 |
| 20260505085517 | 52 | 292 | 5.0 | 10.0 | 0.00 | 0.01 | 0.00 | 58 | 1001.2 |
| 20260505085017 | 52 | 290 | 6.0 | 10.0 | 0.00 | 0.01 | 0.00 | 58 | 1001.2 |
| 20260505084518 | 52 | 294 | 5.0 | 11.0 | 0.00 | 0.01 | 0.00 | 58 | 1000.6 |
| 20260505084017 | 52 | 284 | 5.0 | 11.0 | 0.00 | 0.01 | 0.00 | 58 | 1000.8 |
| 20260505083518 | 52 | 295 | 6.0 | 10.0 | 0.00 | 0.01 | 0.00 | 59 | 1001.1 |
| 20260505083017 | 52 | 288 | 7.0 | 10.0 | 0.00 | 0.01 | 0.00 | 61 | 1001.1 |
| 20260505082518 | 52 | 283 | 5.0 | 10.0 | 0.00 | 0.01 | 0.00 | 61 | 1000.8 |
| 20260505082017 | 52 | 284 | 3.0 | 7.0 | 0.00 | 0.01 | 0.00 | 61 | 1000.2 |
| 20260505081517 | 53 | 285 | 3.0 | 9.0 | 0.00 | 0.01 | 0.00 | 62 | 1000.3 |
| 20260505081038 | 53 | 286 | 5.0 | 9.0 | 0.00 | 0.01 | 0.00 | 61 | 1000.4 |
| 20260505080517 | 53 | 293 | 5.0 | 11.0 | 0.00 | 0.01 | 0.00 | 61 | 1000.6 |
| 20260505080016 | 53 | 303 | 7.0 | 11.0 | 0.00 | 0.01 | 0.00 | 60 | 1000.2 |
| 20260505075517 | 53 | 297 | 4.0 | 9.0 | 0.00 | 0.01 | 0.00 | 61 | 1000.1 |
| 20260505075038 | 53 | 305 | 3.0 | 9.0 | 0.00 | 0.01 | 0.00 | 61 | 1000.1 |
| 20260505074537 | 54 | 277 | 3.0 | 8.0 | 0.00 | 0.01 | 0.00 | 61 | 1000.2 |
| 20260505074018 | 54 | 285 | 4.0 | 9.0 | 0.00 | 0.01 | 0.00 | 61 | 999.8 |
| 20260505073516 | 54 | 292 | 5.0 | 11.0 | 0.00 | 0.01 | 0.00 | 60 | 999.9 |
| 20260505073017 | 54 | 301 | 8.0 | 12.0 | 0.00 | 0.01 | 0.00 | 60 | 1000.2 |
| 20260505072516 | 54 | 288 | 7.0 | 13.0 | 0.00 | 0.01 | 0.00 | 61 | 1000.2 |
| 20260505072017 | 54 | 281 | 6.0 | 13.0 | 0.00 | 0.01 | 0.00 | 60 | 1000.0 |
| 20260505071517 | 55 | 287 | 5.0 | 9.0 | 0.00 | 0.01 | 0.00 | 64 | 1000.3 |
| 20260505071017 | 55 | 274 | 4.0 | 13.0 | 0.00 | 0.01 | 0.00 | 64 | 1000.2 |
| 20260505070516 | 55 | 274 | 8.0 | 13.0 | 0.00 | 0.01 | 0.00 | 64 | 1000.6 |
| 20260505070018 | 55 | 277 | 7.0 | 11.0 | 0.00 | 0.01 | 0.00 | 63 | 1000.6 |
| 20260505065516 | 55 | 287 | 5.0 | 11.0 | 0.00 | 0.01 | 0.00 | 64 | 1000.2 |
| 20260505065016 | 56 | 291 | 7.0 | 13.0 | 0.00 | 0.01 | 0.00 | 65 | 999.9 |
| 20260505064516 | 56 | 269 | 6.0 | 13.0 | 0.00 | 0.01 | 0.00 | 66 | 999.9 |
| 20260505064037 | 56 | 260 | 6.0 | 9.0 | 0.00 | 0.01 | 0.00 | 66 | 999.8 |
| 20260505063516 | 56 | 261 | 5.0 | 13.0 | 0.00 | 0.01 | 0.00 | 65 | 999.4 |
| 20260505063017 | 56 | 265 | 7.0 | 13.0 | 0.00 | 0.01 | 0.00 | 65 | 999.6 |
| 20260505062517 | 56 | 272 | 5.0 | 9.0 | 0.00 | 0.01 | 0.00 | 67 | 999.9 |
| 20260505062016 | 56 | 280 | 5.0 | 9.0 | 0.00 | 0.01 | 0.00 | 70 | 999.9 |
| 20260505061517 | 57 | 264 | 4.0 | 9.0 | 0.00 | 0.01 | 0.00 | 71 | 999.8 |
| 20260505061016 | 57 | 272 | 5.0 | 8.0 | 0.00 | 0.01 | 0.00 | 71 | 999.8 |
| 20260505060536 | 57 | 280 | 5.0 | 11.0 | 0.00 | 0.01 | 0.00 | 71 | 999.8 |
| 20260505060057 | 57 | 281 | 5.0 | 11.0 | 0.00 | 0.01 | 0.00 | 72 | 999.7 |
| 20260505055518 | 57 | 271 | 6.0 | 12.0 | 0.00 | 0.01 | 0.00 | 72 | 999.4 |
| 20260505055018 | 57 | 271 | 7.0 | 12.0 | 0.00 | 0.01 | 0.00 | 72 | 999.3 |
| 20260505054518 | 58 | 266 | 6.0 | 12.0 | 0.00 | 0.01 | 0.00 | 72 | 999.0 |
| 20260505054016 | 58 | 275 | 7.0 | 16.0 | 0.00 | 0.01 | 0.00 | 72 | 999.1 |
| 20260505053516 | 59 | 274 | 8.0 | 16.0 | 0.00 | 0.01 | 0.00 | 72 | 999.0 |
| 20260505053018 | 59 | 276 | 8.0 | 15.0 | 0.00 | 0.01 | 0.00 | 72 | 998.9 |
| 20260505052516 | 59 | 274 | 7.0 | 13.0 | 0.00 | 0.01 | 0.00 | 75 | 998.7 |
| 20260505052016 | 59 | 275 | 7.0 | 13.0 | 0.00 | 0.01 | 0.00 | 76 | 998.7 |
| 20260505051517 | 58 | 274 | 6.0 | 11.0 | 0.00 | 0.01 | 0.00 | 78 | 998.7 |
| 20260505051016 | 58 | 262 | 7.0 | 12.0 | 0.00 | 0.01 | 0.00 | 80 | 998.6 |
| 20260505050516 | 58 | 253 | 6.0 | 12.0 | 0.00 | 0.01 | 0.00 | 81 | 998.5 |